KLM49W EHRD-EHAM

Flight info

Callsign KLM49W
Flight time 0h 10m
Altitude 6000
Route RTM DCT SOKSI/N0274F070 DCT AM006 DCT DIBRU/N0270F060 DCT AM084/N0274F070
Aircraft B738/M-SDE2E3FGHIRWXY/LB1

Departure

Time 2026-05-04 19:28
Airport Rotterdam The Hague Airport (EHRD)

Arrival

Time 2026-05-04 19:39
Airport Amsterdam Airport Schiphol (EHAM)
Time Latitude Longitude Altitude Speed Heading
2026-05-04 18:56 51.95056 4.43568 -7 ft 0 kts 146°
2026-05-04 19:20 51.95055 4.43570 -7 ft 2 kts 141°
2026-05-04 19:20 51.95019 4.43558 -7 ft 9 kts 220°
2026-05-04 19:21 51.94980 4.43572 -7 ft 7 kts 93°
2026-05-04 19:21 51.95012 4.43660 -7 ft 7 kts 54°
2026-05-04 19:21 51.95075 4.43688 -7 ft 13 kts 336°
2026-05-04 19:21 51.95142 4.43615 -7 ft 11 kts 325°
2026-05-04 19:22 51.95198 4.43559 -7 ft 12 kts 334°
2026-05-04 19:22 51.95282 4.43516 -7 ft 13 kts 39°
2026-05-04 19:22 51.95349 4.43664 -7 ft 20 kts 57°
2026-05-04 19:22 51.95432 4.43872 -7 ft 17 kts 57°
2026-05-04 19:23 51.95485 4.44007 -7 ft 17 kts 61°
2026-05-04 19:23 51.95560 4.44194 -7 ft 22 kts 57°
2026-05-04 19:23 51.95653 4.44423 -7 ft 26 kts 57°
2026-05-04 19:23 51.95749 4.44658 -7 ft 26 kts 57°
2026-05-04 19:24 51.95852 4.44925 -7 ft 30 kts 56°
2026-05-04 19:24 51.95969 4.45218 -7 ft 32 kts 56°
2026-05-04 19:24 51.96092 4.45522 -7 ft 24 kts 57°
2026-05-04 19:24 51.96166 4.45649 -7 ft 16 kts 12°
2026-05-04 19:25 51.96237 4.45593 -7 ft 8 kts 307°
2026-05-04 19:25 51.96240 4.45587 -7 ft 0 kts 307°
2026-05-04 19:26 51.96240 4.45586 -7 ft 0 kts 307°
2026-05-04 19:26 51.96262 4.45518 -7 ft 14 kts 285°
2026-05-04 19:27 51.96226 4.45370 -7 ft 0 kts 236°
2026-05-04 19:27 51.96213 4.45338 -7 ft 22 kts 237°
2026-05-04 19:28 51.95989 4.44772 -7 ft 96 kts 236°
2026-05-04 19:28 51.95495 4.43557 -3 ft 159 kts 237°
2026-05-04 19:28 51.94871 4.41956 612 ft 171 kts 238°
2026-05-04 19:28 51.94391 4.40248 1589 ft 166 kts 249°
2026-05-04 19:29 51.94090 4.38355 2150 ft 189 kts 268°
2026-05-04 19:29 51.94487 4.36229 2695 ft 208 kts 301°
2026-05-04 19:29 51.95599 4.34525 3048 ft 237 kts 328°
2026-05-04 19:29 51.97187 4.33612 3094 ft 248 kts 350°
2026-05-04 19:30 51.98897 4.33556 3096 ft 252 kts
2026-05-04 19:30 52.00652 4.33758 3079 ft 252 kts
2026-05-04 19:30 52.02406 4.33959 3060 ft 251 kts
2026-05-04 19:30 52.04146 4.34159 3048 ft 251 kts
2026-05-04 19:31 52.05889 4.34360 3041 ft 251 kts
2026-05-04 19:31 52.07631 4.34566 3036 ft 251 kts
2026-05-04 19:31 52.09360 4.34765 3031 ft 246 kts
2026-05-04 19:31 52.11043 4.34943 3026 ft 239 kts
2026-05-04 19:32 52.12682 4.35116 3024 ft 233 kts
2026-05-04 19:32 52.14294 4.35310 3018 ft 230 kts
2026-05-04 19:32 52.15730 4.36377 3005 ft 227 kts 34°
2026-05-04 19:32 52.16781 4.38179 2993 ft 226 kts 60°
2026-05-04 19:33 52.17364 4.40532 3012 ft 213 kts 74°
2026-05-04 19:33 52.17465 4.42796 2975 ft 195 kts 90°
2026-05-04 19:33 52.17786 4.44836 2948 ft 174 kts 66°
2026-05-04 19:33 52.18357 4.46449 2999 ft 162 kts 58°
2026-05-04 19:34 52.18958 4.47960 2982 ft 156 kts 57°
2026-05-04 19:34 52.19543 4.49445 2987 ft 155 kts 57°
2026-05-04 19:34 52.20123 4.50932 3019 ft 154 kts 57°
2026-05-04 19:34 52.20681 4.52368 3046 ft 147 kts 58°
2026-05-04 19:35 52.21221 4.53764 2801 ft 144 kts 58°
2026-05-04 19:35 52.21750 4.55132 2585 ft 141 kts 58°
2026-05-04 19:35 52.22266 4.56469 2396 ft 138 kts 58°
2026-05-04 19:35 52.22772 4.57780 2214 ft 135 kts 58°
2026-05-04 19:36 52.23269 4.59070 2041 ft 134 kts 58°
2026-05-04 19:36 52.23765 4.60355 1867 ft 134 kts 58°
2026-05-04 19:36 52.24260 4.61642 1691 ft 134 kts 58°
2026-05-04 19:36 52.24767 4.62957 1469 ft 141 kts 58°
2026-05-04 19:37 52.25299 4.64338 1316 ft 145 kts 58°
2026-05-04 19:37 52.25842 4.65748 1133 ft 148 kts 58°
2026-05-04 19:37 52.26384 4.67157 935 ft 149 kts 58°
2026-05-04 19:37 52.26943 4.68609 732 ft 150 kts 58°
2026-05-04 19:38 52.27493 4.70039 536 ft 152 kts 58°
2026-05-04 19:38 52.28062 4.71516 313 ft 155 kts 58°
2026-05-04 19:38 52.28630 4.73003 126 ft 152 kts 58°
2026-05-04 19:38 52.29180 4.74437 9 ft 144 kts 58°
2026-05-04 19:39 52.29660 4.75686 -3 ft 105 kts 57°
2026-05-04 19:39 52.29940 4.76409 -3 ft 39 kts 57°
2026-05-04 19:39 52.30126 4.76637 -3 ft 29 kts 27°
2026-05-04 19:39 52.30201 4.76700 -3 ft 3 kts 27°
2026-05-04 19:40 52.30248 4.76740 -3 ft 12 kts 27°
2026-05-04 19:40 52.30301 4.76809 -3 ft 7 kts 48°
2026-05-04 19:40 52.30318 4.76841 -3 ft 0 kts 52°
2026-05-04 19:40 52.30320 4.76845 -3 ft 2 kts 52°
2026-05-04 19:41 52.30334 4.76878 -3 ft 6 kts 56°
2026-05-04 19:41 52.30362 4.76949 -3 ft 9 kts 58°
2026-05-04 19:41 52.30405 4.77049 -3 ft 12 kts 26°
2026-05-04 19:41 52.30433 4.77047 -3 ft 0 kts 333°
2026-05-04 19:42 52.30477 4.77035 -3 ft 10 kts 27°
2026-05-04 19:42 52.30518 4.77107 -3 ft 9 kts 52°
2026-05-04 19:43 52.30559 4.77209 -3 ft 12 kts 57°
2026-05-04 19:43 52.30625 4.77317 -3 ft 15 kts 33°
2026-05-04 19:43 52.30696 4.77349 -3 ft 9 kts 358°
2026-05-04 19:43 52.30705 4.77350 -3 ft 0 kts